Weather History for Grazzanise, Italy

Change the Weather History Date:

Monday, November 18, 2013

  Actual Average (LIRN) Record (LIRN)
Temperature  
Mean Temperature 55 °F -  
Max Temperature 63 °F 59 °F 69 °F (2002)
Min Temperature 47 °F 42 °F 37 °F (2007)
Degree Days  
Heating Degree Days 10    
Growing Degree Days 5 (Base 50)    
Moisture  
Dew Point 53 °F    
Average Humidity 89    
Maximum Humidity 100    
Minimum Humidity 75    
Precipitation  
Precipitation 0.01 in 0.15 in - ()
Sea Level Pressure  
Sea Level Pressure 29.96 in    
Wind  
Wind Speed 7 mph ()    
Max Wind Speed 12 mph    
Max Gust Speed -    
Visibility 7.6 miles    
Events Rain    
Averages and records for this station are not official NWS values.
T = Trace of Precipitation, MM = Missing Value Source: Averaged Metar Reports

Daily Weather History Graph

Daily Weather History Graph

Search for Another Location

Airport:

Trip Planner

Search our weather history database for the weather conditions in past years. The results will help you decide how hot, cold, wet, or windy it might be!

Date:

Astronomy

Nov. 18, 2013 Rise Set
Actual Time 6:54 AM CET 4:42 PM CET
Civil Twilight 6:25 AM CET 5:12 PM CET
Nautical Twilight 5:51 AM CET 5:45 PM CET
Astronomical Twilight 5:18 AM CET 6:18 PM CET
Moon 5:31 PM CET (11/18) 7:28 AM CET (11/18)
Length of Visible Light 10h 47m
Length of Day
9h 47m
Full, 99% of the Moon is Illuminated
Nov 18
Full
Nov 25
Last Quarter
Dec 3
New
Dec 9
First Quarter
Dec 17
Full

Hourly Weather History & Observations

Time (CET) Temp. Dew Point Humidity Pressure Visibility Wind Dir Wind Speed Gust Speed Precip Events Conditions
12:55 AM 50.0 °F 48.2 °F 94% 30.09 in - NNE 5.8 mph - N/A   Clear
1:00 AM 51 °F 48 °F 87% 30.10 in 12 mi NNE 5.8 mph - -   Clear
1:55 AM 50.0 °F 48.2 °F 94% 30.09 in - NNE 5.8 mph - N/A   Clear
2:55 AM 51.8 °F 48.2 °F 88% 30.06 in - North 5.8 mph - N/A   Clear
3:55 AM 48.2 °F 44.6 °F 87% 30.06 in - North 6.9 mph - N/A   Clear
4:00 AM 48 °F 45 °F 87% 30.07 in 12 mi North 6.9 mph - -   Clear
4:55 AM 48.2 °F 44.6 °F 87% 30.04 in - North 6.9 mph - N/A   Clear
5:55 AM 48.2 °F 44.6 °F 87% 30.01 in 6.2 mi NNE 9.2 mph - N/A   Partly Cloudy
6:55 AM 51.8 °F 48.2 °F 88% 30.01 in 6.2 mi NE 9.2 mph - N/A   Partly Cloudy
7:00 AM 51 °F 48 °F 86% 30.03 in 16 mi NE 9.2 mph - -   Scattered Clouds
7:55 AM 53.6 °F 50.0 °F 88% 30.01 in 6.2 mi NE 8.1 mph - N/A   Partly Cloudy
8:55 AM 55.4 °F 51.8 °F 88% 30.01 in 6.2 mi NE 9.2 mph - N/A   Partly Cloudy
9:55 AM 59.0 °F 53.6 °F 82% 30.01 in 6.2 mi ENE 10.4 mph - N/A   Scattered Clouds
10:00 AM 60 °F 54 °F 76% 30.01 in 12 mi ENE 10.4 mph - -   Scattered Clouds
10:55 AM 60.8 °F 55.4 °F 82% 30.01 in 6.2 mi ENE 9.2 mph - N/A   Mostly Cloudy
11:55 AM 60.8 °F 55.4 °F 82% 29.98 in 6.2 mi ENE 10.4 mph - N/A   Mostly Cloudy
12:55 PM 62.6 °F 57.2 °F 82% 29.95 in 6.2 mi ENE 11.5 mph - N/A   Scattered Clouds
1:00 PM 63 °F 57 °F 75% 29.96 in 6 mi ENE 11.5 mph - -   Scattered Clouds
1:55 PM 60.8 °F 57.2 °F 88% 29.95 in 6.2 mi ENE 8.1 mph - N/A   Scattered Clouds
2:55 PM 60.8 °F 55.4 °F 82% 29.92 in 6.2 mi ENE 8.1 mph - N/A   Scattered Clouds
3:55 PM 60.8 °F 57.2 °F 88% 29.92 in 6.2 mi ENE 10.4 mph - N/A   Scattered Clouds
4:00 PM 60 °F 57 °F 87% 29.92 in 12 mi ENE 10.4 mph - -   Overcast
4:55 PM 59.0 °F 55.4 °F 88% 29.89 in 6.2 mi ENE 9.2 mph - N/A   Scattered Clouds
5:55 PM 59.0 °F 59.0 °F 100% 29.89 in 6.2 mi ENE 6.9 mph - N/A   Scattered Clouds
6:55 PM 59.0 °F 59.0 °F 100% 29.86 in 6.2 mi ENE 11.5 mph - N/A   Scattered Clouds
7:00 PM 59 °F 58 °F 96% 29.86 in 9 mi ENE 11.5 mph - -   Overcast
7:55 PM 59.0 °F 57.2 °F 94% 29.83 in 6.2 mi NE 9.2 mph - N/A   Scattered Clouds
8:55 PM 57.2 °F 57.2 °F 100% 29.83 in 6.2 mi East 8.1 mph - N/A   Mostly Cloudy
9:55 PM 57.2 °F 55.4 °F 94% 29.83 in 6.2 mi ENE 9.2 mph - N/A   Mostly Cloudy
10:00 PM 57 °F 56 °F 96% 29.84 in 9 mi ENE 9.2 mph - -   Scattered Clouds
10:55 PM 57.2 °F 55.4 °F 94% 29.80 in 6.2 mi ENE 9.2 mph - N/A Rain Light Rain
11:55 PM 57.2 °F 55.4 °F 94% 29.77 in 6.2 mi NE 11.5 mph - N/A   Scattered Clouds